[[{"header":{"parameterUnit":"m.s-1","parameterCategory":1,"la1":30.2991,"la2":30.254,"lo1":-89.0895,"lo2":-89.0444,"dx":0.0017,"dy":0.0017,"nx":28,"ny":28,"refTime":"2022-11-29T09:00:00:Z","depth":0,"parameterNumber":2,"parameterNumberName":"U-component_of_WINDS"},"data":[0,0,0,0,0,0,0,0,0,0,0,0,0,0,0,0,0,0,0,0,0,0,0,0,0,0,0,0,0,0,0,0,0,0,0,0,0,0,0,0,0,0,0,0,0,0,0,0,0,0,0,0,0,0,0,0,0,0,3.1679,3.168,0,3.1756,3.1757,3.1757,3.1738,3.1737,3.1735,3.1734,3.1813,3.1817,3.182,0,0,0,0,0,0,0,0,0,0,0,0,0,3.1519,3.1522,3.1679,3.168,3.1681,3.1756,3.1757,3.1758,3.1738,3.1736,3.1735,3.1733,3.1812,3.1816,3.1821,0,0,0,0,0,0,0,0,0,0,0,0,0,3.1591,3.1523,3.1679,3.168,3.1681,3.1755,3.1757,3.1758,3.1739,3.1736,3.1734,3.1732,3.1811,3.1816,3.1821,3.1899,0,0,3.1837,3.184,0,0,0,0,0,0,0,0,3.1587,3.1597,3.1679,3.168,3.1682,3.1735,3.1729,3.1805,3.1739,3.1717,3.1734,3.1731,3.1789,3.1796,3.1815,3.1903,3.1906,3.1838,3.1841,3.1843,3.1845,0,0,0,0,0,0,0,3.1582,3.1594,3.1709,3.168,3.1682,3.1678,3.1686,3.1743,3.1765,3.1719,3.1717,3.1727,3.1789,3.181,3.1817,3.1907,3.1838,3.1842,3.1846,3.1848,3.2064,3.2066,0,0,0,0,0,0,3.1576,3.1589,3.1707,3.1712,3.1628,3.1683,3.1691,3.172,3.1764,3.1769,3.1729,3.1726,3.1802,3.1811,3.182,3.1915,3.1843,3.1848,3.1851,3.2061,3.2064,3.2067,0,0,0,0,0,0,3.1572,3.1586,3.1704,3.165,3.1665,3.1688,3.172,3.1723,3.1744,3.1772,3.1775,3.1746,3.1801,3.1812,3.188,3.1917,3.1851,3.1855,3.2058,3.2062,3.2065,3.2105,0,0,0,0,0,0,3.1568,3.1585,3.1615,3.1651,3.1668,3.1762,3.1723,3.1726,3.1753,3.175,3.1789,3.1793,3.18,3.1872,3.1885,3.1924,3.1859,3.2055,3.206,3.2064,3.2101,3.211,3.2118,0,0,0,0,0,3.1562,3.1623,3.1616,3.1631,3.1705,3.1764,3.1774,3.178,3.1756,3.1786,3.1804,3.1792,3.1911,3.1879,3.1893,3.1934,3.2052,3.2058,3.2064,3.2097,3.2108,3.2118,0,0,0,0,0,0,3.1591,3.1628,3.1621,3.1695,3.1727,3.1761,3.1799,3.1792,3.1831,3.1827,3.1833,3.1842,3.1911,3.1929,3.1893,3.2012,3.1978,3.1987,3.1998,3.2009,3.2018,3.2012,3.1864,0,0,0,0,0,3.1605,3.165,3.168,3.1742,3.1759,3.1776,3.1802,3.1804,3.1837,3.1851,3.1874,3.1907,3.1952,3.1981,3.2024,3.2103,3.2112,3.2138,3.2147,3.2154,3.2162,3.2206,3.2218,3.2086,3.2086,3.2086,0,0,3.1637,3.1662,3.169,3.1749,3.1774,3.182,3.1788,3.1838,3.1873,3.1859,3.1924,3.1942,3.1979,3.2053,3.2086,3.207,3.22,3.2161,3.2166,3.2171,3.2213,3.2226,3.2237,3.209,3.2089,3.2088,0,0,3.1718,3.1741,3.1796,3.1822,3.186,3.1871,3.1884,3.192,3.1931,3.1997,3.1987,3.2029,3.2106,3.2133,3.2157,3.2249,3.224,3.2263,3.2309,3.2352,3.2362,3.2371,3.2406,3.2418,3.2271,3.2271,3.2271,0,3.1752,3.1821,3.1826,3.1878,3.1904,3.1893,3.195,3.1974,3.2024,3.2043,3.2024,3.2121,3.2145,3.2226,3.2249,3.2268,3.2284,3.2259,3.236,3.237,3.2378,3.2411,3.2424,3.2273,3.2273,3.2273,3.2273,0,3.1862,3.1911,3.1951,3.1999,3.2031,3.2084,3.2098,3.2129,3.2128,3.2142,3.2209,3.2238,3.2287,3.2306,3.2306,3.2387,3.2376,3.2358,3.2324,3.2393,3.2424,3.2437,3.2277,3.2276,3.2276,3.2275,0,0,3.1964,3.2014,3.2029,3.2052,3.2093,3.2131,3.2184,3.2232,3.2259,3.2294,3.234,3.2406,3.239,3.2417,3.242,3.2458,3.253,3.2436,3.2437,3.2454,3.2623,3.2637,3.2651,3.2524,3.2527,3.2528,3.262,0,3.2049,3.2144,3.215,3.2236,3.2281,3.2271,3.2318,3.2349,3.2363,3.2404,3.242,3.2467,3.2442,3.2459,3.2495,3.2514,3.2565,3.2507,3.2568,3.257,3.256,3.2667,3.2682,3.2767,3.2632,3.2634,3.2636,0,3.2162,3.2201,3.2291,3.2327,3.2346,3.2388,3.2433,3.2472,3.2507,3.2515,3.2545,3.2543,3.2599,3.2562,3.264,3.2601,3.2626,3.2639,3.2643,3.265,3.2608,3.2678,3.2794,3.2808,3.2655,3.2653,3.2652,0,3.2229,3.2303,3.2367,3.2386,3.2429,3.2459,3.2479,3.2511,3.254,3.2579,3.2598,3.2643,3.2668,3.2703,3.2713,3.2685,3.2792,3.2755,3.2801,3.28,3.2824,3.2823,3.2948,3.2838,3.2838,3.2838,3.2838,0,3.2325,3.2381,3.2398,3.2437,3.25,3.2507,3.2569,3.2586,3.2616,3.2659,3.2653,3.2694,3.2704,3.2747,3.2755,3.282,3.2831,3.2839,3.2841,3.2841,3.284,3.2858,3.2853,3.2841,3.2841,3.284,3.2839,0,3.241,3.2424,3.2493,3.2528,3.2538,3.2583,3.2613,3.2652,3.2665,3.272,3.2733,3.2754,3.2805,3.2818,3.2878,3.2884,3.296,3.2956,3.2948,3.2949,3.2994,3.299,3.3136,3.3156,3.3032,3.3033,3.3034,0,3.2471,3.2514,3.2554,3.2582,3.2603,3.2649,3.2678,3.2686,3.2716,3.276,3.2794,3.2843,3.2883,3.2965,3.2986,3.3032,3.303,3.3077,3.3037,3.3035,3.3032,3.303,3.3035,3.3086,3.3087,3.3088,3.3089,0,3.2578,3.2583,3.2625,3.267,3.2705,3.2741,3.2775,3.2799,3.2812,3.2847,3.2898,3.2929,3.2991,3.3041,3.3088,3.3108,3.3102,3.3101,3.3115,3.3115,3.311,3.3115,3.2971,3.3098,3.3097,3.3097,3.3096,3.3096,3.2654,3.2693,3.2727,3.2774,3.2801,3.2833,3.2871,3.2889,3.2932,3.2983,3.2985,3.3041,3.3076,3.3138,3.3161,3.3206,3.3192,3.3211,3.3216,3.322,3.3225,3.3102,3.3214,3.3214,3.3214,3.3214,3.3214,0,3.2762,3.2784,3.2827,3.2876,3.2913,3.2903,3.294,3.2973,3.3022,3.3055,3.3095,3.3154,3.3203,3.3228,3.3276,3.3307,3.3305,3.3319,3.3318,3.3323,3.3234,3.3219,3.332,3.332,3.332,3.332,3.332,3.332,3.2823,3.2888,3.2897,3.2975,3.2996,3.3051,3.3073,3.3103,3.313,3.3197,3.3237,3.3252,3.3283,3.3333,3.3377,3.3383,3.3402,3.3418,3.3423,3.334,3.3329,3.3319,3.3304,3.3422,3.3422,3.3508,3.3509,3.3509]},{"header":{"parameterUnit":"m.s-1","parameterCategory":1,"la1":30.2991,"la2":30.254,"lo1":-89.0895,"lo2":-89.0444,"dx":0.0017,"dy":0.0017,"nx":28,"ny":28,"refTime":"2022-11-29T09:00:00:Z","depth":0,"parameterNumber":3,"parameterNumberName":"V-component_of_WINDS"},"data":[0,0,0,0,0,0,0,0,0,0,0,0,0,0,0,0,0,0,0,0,0,0,0,0,0,0,0,0,0,0,0,0,0,0,0,0,0,0,0,0,0,0,0,0,0,0,0,0,0,0,0,0,0,0,0,0,0,0,3.5372,3.5373,0,3.549,3.5492,3.5493,3.5507,3.5506,3.5505,3.5504,3.563,3.5634,3.5639,0,0,0,0,0,0,0,0,0,0,0,0,0,3.5164,3.5168,3.5372,3.5373,3.5375,3.549,3.5492,3.5493,3.5507,3.5506,3.5504,3.5503,3.5628,3.5634,3.5639,0,0,0,0,0,0,0,0,0,0,0,0,0,3.5266,3.5169,3.5371,3.5395,3.5399,3.549,3.5492,3.5494,3.5508,3.5506,3.5504,3.5502,3.5627,3.5633,3.564,3.5717,0,0,3.566,3.5663,0,0,0,0,0,0,0,0,3.526,3.5273,3.539,3.5394,3.5398,3.5482,3.5465,3.5569,3.5508,3.5466,3.5504,3.5501,3.5582,3.5593,3.5619,3.5722,3.5728,3.5661,3.5665,3.5668,3.567,0,0,0,0,0,0,0,3.5253,3.5268,3.5419,3.5392,3.5397,3.5402,3.5415,3.5485,3.5533,3.547,3.5471,3.5485,3.5584,3.5612,3.5622,3.573,3.5661,3.5666,3.5671,3.5673,3.5908,3.591,0,0,0,0,0,0,3.5241,3.5262,3.5415,3.5422,3.5323,3.5408,3.5422,3.5457,3.5532,3.5542,3.5486,3.5485,3.5602,3.5614,3.5626,3.5725,3.5668,3.5674,3.5678,3.5905,3.5908,3.591,0,0,0,0,0,0,3.5236,3.5254,3.541,3.5343,3.5363,3.5413,3.5453,3.546,3.5488,3.5544,3.5554,3.5506,3.5601,3.5617,3.5695,3.573,3.5677,3.5683,3.5903,3.5906,3.5909,3.5921,0,0,0,0,0,0,3.523,3.5252,3.528,3.5343,3.5367,3.5475,3.5455,3.5464,3.5499,3.5499,3.5565,3.5575,3.5601,3.5685,3.5701,3.5738,3.5688,3.59,3.5904,3.5908,3.5917,3.5924,3.5929,0,0,0,0,0,3.5222,3.5279,3.5281,3.53,3.5402,3.5476,3.549,3.5517,3.5502,3.5532,3.5569,3.5573,3.5722,3.5693,3.5712,3.575,3.5898,3.5903,3.5908,3.5915,3.5923,3.5929,0,0,0,0,0,0,3.5219,3.5287,3.5291,3.5369,3.5417,3.5478,3.5517,3.5524,3.5579,3.5576,3.5609,3.5624,3.5702,3.5733,3.5699,3.5831,3.5809,3.5818,3.5808,3.5816,3.5822,3.5814,3.5694,0,0,0,0,0,3.5227,3.528,3.5337,3.54,3.5424,3.5466,3.55,3.5517,3.5568,3.5589,3.5631,3.5683,3.5742,3.578,3.5837,3.5921,3.5939,3.5958,3.5964,3.5968,3.5977,3.6028,3.6039,3.5927,3.5927,3.5927,0,0,3.5245,3.5289,3.532,3.5401,3.544,3.5497,3.5483,3.5543,3.5586,3.5599,3.5675,3.5708,3.5768,3.5851,3.5889,3.588,3.6011,3.5975,3.5978,3.5984,3.6034,3.6045,3.6054,3.593,3.5929,3.5929,0,0,3.5307,3.5343,3.5402,3.5442,3.5501,3.5529,3.5543,3.5605,3.5627,3.5704,3.5716,3.5769,3.5869,3.5912,3.5947,3.6029,3.6037,3.6047,3.6079,3.6129,3.6138,3.6146,3.6179,3.619,3.6054,3.6054,3.6054,0,3.5322,3.5406,3.5432,3.5492,3.5529,3.5542,3.5604,3.5641,3.5717,3.5744,3.5731,3.586,3.59,3.5995,3.6016,3.6042,3.6062,3.604,3.6134,3.6142,3.615,3.6183,3.6194,3.6055,3.6055,3.6055,3.6055,0,3.5424,3.5482,3.5522,3.5595,3.5636,3.5697,3.5735,3.5774,3.5788,3.5818,3.5899,3.5949,3.6018,3.6042,3.6055,3.614,3.6133,3.6127,3.6106,3.6162,3.6193,3.6205,3.6057,3.6057,3.6056,3.6056,0,0,3.5487,3.5574,3.5589,3.5624,3.5691,3.5738,3.5801,3.5868,3.5903,3.5955,3.6011,3.6096,3.6092,3.6132,3.6152,3.6195,3.6262,3.6184,3.6186,3.62,3.6363,3.6369,3.6383,3.6266,3.6268,3.627,3.6359,0,3.5559,3.567,3.5696,3.5792,3.5849,3.5863,3.5919,3.5968,3.5999,3.6053,3.6087,3.6149,3.6137,3.6162,3.6205,3.6244,3.6295,3.6238,3.6322,3.6325,3.631,3.6398,3.6404,3.6486,3.6371,3.6373,3.6374,0,3.5658,3.5713,3.5814,3.5878,3.5903,3.5952,3.6018,3.6068,3.6125,3.6145,3.6191,3.6207,3.6276,3.625,3.6348,3.6309,3.6345,3.6369,3.6373,3.6385,3.6355,3.6416,3.6512,3.6526,3.6393,3.6391,3.639,0,3.5699,3.5798,3.5872,3.5901,3.5976,3.6011,3.6044,3.6099,3.6139,3.6197,3.6224,3.6289,3.6326,3.6378,3.6412,3.6389,3.6509,3.6485,3.6531,3.653,3.6558,3.6556,3.6665,3.6575,3.6575,3.6575,3.6574,0,3.5779,3.5842,3.5892,3.5938,3.601,3.6041,3.6113,3.6146,3.6196,3.6252,3.6267,3.6319,3.636,3.6419,3.6446,3.6526,3.6541,3.6562,3.6569,3.6563,3.6561,3.6589,3.6586,3.6578,3.6577,3.6577,3.6576,0,3.5837,3.5873,3.5956,3.6021,3.6039,3.6089,3.6146,3.6193,3.6224,3.6295,3.6313,3.6363,3.6434,3.6472,3.656,3.6579,3.667,3.6672,3.665,3.6654,3.67,3.6696,3.6833,3.6855,3.6747,3.6748,3.6749,0,3.5888,3.5936,3.6007,3.6044,3.6078,3.6138,3.618,3.6213,3.6256,3.6326,3.6366,3.6437,3.6496,3.6608,3.6654,3.6722,3.6729,3.6772,3.6739,3.6733,3.6735,3.6733,3.674,3.6779,3.678,3.6781,3.6781,0,3.5974,3.599,3.6048,3.6113,3.6162,3.6215,3.6268,3.6298,3.6341,3.6388,3.646,3.6506,3.6596,3.6668,3.6741,3.6778,3.6789,3.6791,3.6806,3.6802,3.6789,3.6801,3.667,3.6788,3.6788,3.6787,3.6787,3.6786,3.6033,3.6079,3.6136,3.6201,3.6244,3.6294,3.6343,3.6381,3.644,3.6516,3.6533,3.661,3.667,3.6768,3.6807,3.687,3.6862,3.6883,3.6889,3.6894,3.6898,3.6776,3.6883,3.6883,3.6882,3.6882,3.6882,0,3.6124,3.6162,3.6221,3.6295,3.6348,3.6351,3.641,3.6454,3.6521,3.6576,3.6633,3.6718,3.6789,3.684,3.6913,3.6954,3.6961,3.6972,3.6971,3.6981,3.6899,3.6881,3.6966,3.6965,3.6965,3.6965,3.6965,3.6965,3.6178,3.6257,3.628,3.6382,3.642,3.6494,3.6529,3.6576,3.662,3.6714,3.6772,3.6805,3.686,3.6937,3.7003,3.7017,3.7045,3.7056,3.7071,3.6995,3.6986,3.6977,3.6961,3.7061,3.7061,3.7148,3.7149,3.715]}]]